Fort Myers, FL

8:42 PM EDT on April 24, 2018 (GMT -0400)
Page

Weather History for KFMY - January, 2015

Change the Weather History Date:

Sunday, January 25, 2015

  Actual Average Record
Temperature  
Mean Temperature 57 °F 64 °F  
Max Temperature 67 °F 75 °F 86 °F (2012)
Min Temperature 46 °F 54 °F 37 °F (2003)
Degree Days  
Heating Degree Days 8 3  
Month to date heating degree days 29 94  
Since 1 July heating degree days 118 187  
Cooling Degree Days 0 3  
Month to date cooling degree days 100 74  
Year to date cooling degree days 100 74  
Growing Degree Days 6 (Base 50)    
Moisture  
Dew Point 48 °F    
Average Humidity 74    
Maximum Humidity 93    
Minimum Humidity 48    
Precipitation  
Precipitation 0.00 in 0.06 in 1.50 in (2011)
Month to date precipitation 0.50 1.55  
Year to date precipitation 0.50 1.55  
Sea Level Pressure  
Sea Level Pressure 30.05 in    
Wind  
Wind Speed 5 mph (North)    
Max Wind Speed 14 mph    
Max Gust Speed 17 mph    
Visibility 10 miles    
Events      
T = Trace of Precipitation, MM = Missing Value Source: NWS Daily Summary

Daily Weather History Graph

Daily Weather History Graph

Search for Another Location

Airport or City:

Astronomy

Jan. 25, 2015 Rise Set
Actual Time 7:15 AM EST 6:04 PM EST
Civil Twilight 6:50 AM EST 6:28 PM EST
Nautical Twilight 6:22 AM EST 6:56 PM EST
Astronomical Twilight 5:55 AM EST 7:24 PM EST
Moon 10:55 AM EST 11:49 PM EST
Length of Visible Light 11h 38m
Length of Day
10h 49m
Waxing Crescent, 34% of the Moon is Illuminated
Jan 25
Waxing Crescent
Jan 26
First Quarter
Feb 3
Full
Feb 11
Last Quarter
Feb 18
New

Hourly Weather History & Observations

Time (EST) Temp. Dew Point Humidity Pressure Visibility Wind Dir Wind Speed Gust Speed Precip Events Conditions
12:53 AM 54.0 °F 48.9 °F 83% 30.04 in 10.0 mi North 6.9 mph - N/A   Clear
1:53 AM 53.1 °F 46.9 °F 80% 30.04 in 10.0 mi North 6.9 mph - N/A   Clear
2:53 AM 52.0 °F 46.0 °F 80% 30.04 in 10.0 mi North 5.8 mph - N/A   Clear
3:53 AM 51.1 °F 46.0 °F 83% 30.04 in 10.0 mi North 4.6 mph - N/A   Clear
4:53 AM 48.9 °F 46.0 °F 90% 30.05 in 10.0 mi ENE 3.5 mph - N/A   Clear
5:53 AM 48.0 °F 46.0 °F 93% 30.06 in 10.0 mi Calm Calm - N/A   Clear
6:53 AM 48.0 °F 46.0 °F 93% 30.10 in 10.0 mi Calm Calm - N/A   Partly Cloudy
7:13 AM 46.9 °F 46.0 °F 97% 30.10 in 10.0 mi East 3.5 mph - N/A   Mostly Cloudy
7:53 AM 48.0 °F 46.9 °F 96% 30.11 in 10.0 mi East 3.5 mph - N/A   Mostly Cloudy
8:53 AM 53.1 °F 46.9 °F 80% 30.12 in 10.0 mi ENE 3.5 mph - N/A   Mostly Cloudy
9:53 AM 57.0 °F 46.9 °F 69% 30.12 in 10.0 mi ENE 6.9 mph - N/A   Clear
10:53 AM 60.1 °F 46.0 °F 60% 30.12 in 10.0 mi North 8.1 mph - N/A   Clear
11:53 AM 63.0 °F 46.9 °F 56% 30.11 in 10.0 mi North 8.1 mph - N/A   Clear
12:53 PM 64.0 °F 46.0 °F 52% 30.06 in 10.0 mi Calm Calm - N/A   Clear
1:53 PM 66.0 °F 46.0 °F 48% 30.02 in 10.0 mi Variable 4.6 mph - N/A   Clear
2:53 PM 66.0 °F 46.9 °F 50% 30.01 in 10.0 mi West 8.1 mph 16.1 mph N/A   Clear
3:53 PM 64.9 °F 46.0 °F 50% 29.99 in 10.0 mi WNW 5.8 mph - N/A   Clear
4:53 PM 64.0 °F 46.0 °F 52% 30.00 in 10.0 mi WNW 8.1 mph - N/A   Clear
5:53 PM 63.0 °F 48.0 °F 58% 30.03 in 10.0 mi West 9.2 mph - N/A   Clear
6:53 PM 59.0 °F 48.9 °F 69% 30.04 in 10.0 mi West 5.8 mph - N/A   Clear
7:53 PM 57.9 °F 50.0 °F 75% 30.06 in 10.0 mi West 4.6 mph - N/A   Clear
8:53 PM 55.9 °F 50.0 °F 80% 30.05 in 10.0 mi Calm Calm - N/A   Clear
9:53 PM 55.0 °F 51.1 °F 86% 30.02 in 10.0 mi South 3.5 mph - N/A   Clear
10:53 PM 55.0 °F 52.0 °F 89% 30.01 in 10.0 mi South 4.6 mph - N/A   Clear
11:53 PM 55.9 °F 53.1 °F 90% 30.00 in 10.0 mi South 4.6 mph - N/A   Clear